Ann Arbor, MI

12:02 AM EST on February 22, 2017 (GMT -0500)
Ann Arbor Municipal

Weather History for KARB - March, 2013

Change the Weather History Date:

Wednesday, March 20, 2013

  Actual Average Record
Temperature  
Mean Temperature 24 °F -  
Max Temperature 30 °F 43 °F 81 °F (2012)
Min Temperature 17 °F 24 °F 17 °F (2013)
Degree Days  
Heating Degree Days 42    
Moisture  
Dew Point 13 °F    
Average Humidity 63    
Maximum Humidity 71    
Minimum Humidity 47    
Precipitation  
Precipitation 0.00 in - - ()
Sea Level Pressure  
Sea Level Pressure 29.93 in    
Wind  
Wind Speed 13 mph (WNW)    
Max Wind Speed 18 mph    
Max Gust Speed 26 mph    
Visibility 8 miles    
Events Snow    
Averages and records for this station are not official NWS values.
T = Trace of Precipitation, MM = Missing Value Source: NWS Daily Summary

Daily Weather History Graph

Daily Weather History Graph

Search for Another Location

Airport or City:

Trip Planner

Search our weather history database for the weather conditions in past years. The results will help you decide how hot, cold, wet, or windy it might be!

Date:

Astronomy

Mar. 20, 2013 Rise Set
Actual Time 7:37 AM EDT 7:47 PM EDT
Civil Twilight 7:09 AM EDT 8:15 PM EDT
Nautical Twilight 6:37 AM EDT 8:48 PM EDT
Astronomical Twilight 6:03 AM EDT 9:21 PM EDT
Moon 1:15 PM EDT (3/20) 3:22 AM EDT (3/20)
Length of Visible Light 13h 05m
Length of Day
12h 09m
First Quarter, 59% of the Moon is Illuminated
Mar 20
First Quarter
Mar 27
Full
Apr 3
Last Quarter
Apr 10
New
Apr 18
First Quarter

Hourly Weather History & Observations

Time (EDT) Temp. Windchill Dew Point Humidity Pressure Visibility Wind Dir Wind Speed Gust Speed Precip Events Conditions
12:53 AM 27.0 °F 15.2 °F 15.1 °F 61% 29.96 in 10.0 mi West 15.0 mph - N/A   Mostly Cloudy
1:53 AM 26.1 °F 14.5 °F 14.0 °F 60% 29.95 in 10.0 mi West 13.8 mph - N/A   Clear
2:53 AM 25.0 °F 14.2 °F 14.0 °F 63% 29.95 in 10.0 mi West 11.5 mph - N/A   Clear
3:53 AM 24.1 °F 14.4 °F 14.0 °F 65% 29.94 in 10.0 mi West 9.2 mph - N/A   Partly Cloudy
4:53 AM 25.0 °F 14.2 °F 14.0 °F 63% 29.93 in 10.0 mi West 11.5 mph - N/A   Mostly Cloudy
5:53 AM 24.1 °F 14.4 °F 14.0 °F 65% 29.93 in 10.0 mi West 9.2 mph - N/A   Scattered Clouds
6:53 AM 24.1 °F 14.4 °F 15.1 °F 69% 29.93 in 10.0 mi West 9.2 mph - N/A   Overcast
7:53 AM 24.1 °F 13.7 °F 14.0 °F 65% 29.94 in 10.0 mi WNW 10.4 mph - N/A   Overcast
8:53 AM 25.0 °F 12.2 °F 14.0 °F 63% 29.94 in 9.0 mi West 16.1 mph 23.0 mph 0.00 in   Overcast
9:53 AM 25.0 °F 13.6 °F 16.0 °F 69% 29.95 in 2.5 mi West 12.7 mph - 0.00 in Snow Light Snow
10:03 AM 24.8 °F 12.4 °F 15.8 °F 69% 29.91 in 4.0 mi West 15.0 mph - 0.00 in Snow Light Snow
10:27 AM 24.8 °F 13.4 °F 15.8 °F 69% 29.92 in 2.5 mi WNW 12.7 mph 24.2 mph 0.00 in Snow Light Snow
10:31 AM 24.8 °F 14.6 °F 15.8 °F 69% 29.91 in 3.0 mi WNW 10.4 mph 23.0 mph 0.00 in Snow Light Snow
10:53 AM 26.1 °F 14.0 °F 12.9 °F 58% 29.94 in 8.0 mi WNW 15.0 mph 21.9 mph 0.00 in Snow Light Snow
11:48 AM 30.2 °F 19.8 °F 15.8 °F 55% 29.91 in 9.0 mi WNW 13.8 mph 25.3 mph 0.00 in   Mostly Cloudy
11:53 AM 27.0 °F 16.7 °F 14.0 °F 58% 29.94 in 9.0 mi WNW 11.5 mph 20.7 mph 0.00 in Snow Light Snow
12:53 PM 27.0 °F 14.3 °F 10.9 °F 51% 29.93 in 10.0 mi WNW 17.3 mph 24.2 mph 0.00 in   Overcast
1:53 PM 30.0 °F 19.1 °F 14.0 °F 51% 29.93 in 10.0 mi WNW 15.0 mph - N/A   Overcast
2:53 PM 28.9 °F 18.6 °F 12.0 °F 49% 29.92 in 10.0 mi West 12.7 mph 20.7 mph N/A   Overcast
3:53 PM 28.0 °F 17.0 °F 10.0 °F 47% 29.91 in 10.0 mi WSW 13.8 mph - 0.00 in   Overcast
4:38 PM 24.8 °F 11.9 °F 15.8 °F 69% 29.89 in 2.0 mi WNW 16.1 mph - 0.00 in Snow Light Snow
4:46 PM 26.6 °F 16.2 °F 15.8 °F 64% 29.89 in 6.0 mi WNW 11.5 mph - 0.00 in Snow Light Snow
4:53 PM 25.0 °F 11.3 °F 15.1 °F 66% 29.93 in 6.0 mi West 18.4 mph 26.5 mph 0.00 in Snow Light Snow
5:03 PM 24.8 °F 11.1 °F 15.8 °F 69% 29.90 in 2.0 mi West 18.4 mph 23.0 mph 0.00 in Snow Light Snow
5:21 PM 24.8 °F 11.1 °F 15.8 °F 69% 29.90 in 4.0 mi West 18.4 mph 21.9 mph 0.00 in Snow Light Snow
5:34 PM 24.8 °F 13.4 °F 15.8 °F 69% 29.90 in 9.0 mi West 12.7 mph 20.7 mph 0.00 in   Overcast
5:53 PM 25.0 °F 11.7 °F 12.0 °F 58% 29.94 in 10.0 mi West 17.3 mph 24.2 mph 0.00 in   Overcast
6:53 PM 23.0 °F 10.6 °F 10.0 °F 58% 29.95 in 7.0 mi WNW 13.8 mph - 0.00 in Snow Light Snow
7:53 PM 21.9 °F 10.4 °F 8.1 °F 55% 29.96 in 10.0 mi WNW 11.5 mph - 0.00 in   Overcast
8:53 PM 19.9 °F 8.6 °F 10.0 °F 65% 29.97 in 10.0 mi WNW 10.4 mph - N/A   Mostly Cloudy
9:53 PM 18.0 °F 7.7 °F 8.1 °F 65% 29.97 in 10.0 mi West 8.1 mph - N/A   Clear
10:53 PM 17.1 °F 7.6 °F 8.1 °F 68% 29.97 in 10.0 mi West 6.9 mph - N/A   Clear
11:53 PM 17.1 °F 3.6 °F 9.0 °F 71% 29.96 in 10.0 mi West 12.7 mph - N/A   Clear